DELTA 1 R/B, 2758

Orbit data source: Space-Track

DELTA 1 R/B, 2758 is space debris in SSO originally from a launch on Thu, 20 Apr 1967 UTC launched from the Air Force Western Test Range (AFWTR). Debris objects in space refer to the collection of defunct objects orbiting the Earth. Examples of debris include non-operational satellites, rocket bodies, and fragments generated from explosions, collisions, or faulty payload assembly.

Loading next visibility...
Identifier
2758, 1967-036B
Orbit
SSO
Country
Flag of USUS
Related business
Manufacturer
ABL
Mission
Spacecraft
Bus & Motor
ALTAIR, Unknown motor
Mass
33 kg wet, 33 kg dry
Launch date (UTC)
1967-04-20 (59 years ago)
Launch vehicle
Unknown
Launch site
Air Force Western Test Range (AFWTR)
Object type
Payload
Rocket body
Debris
Shape & HBR
Unknown
Radar Cross Section
Medium (>0.1 m² and <1 m²)

Expand to show TLE details & history
Last TLE update: 8 hours ago

TLE from 8 hours ago
0 DELTA 1 R/B
1 02758U 67036B   26166.26161627 -.00000029  00000-0  96016-4 0  9994
2 02758 101.8472  73.8909 0040963 333.7241  26.1762 12.68935953739046
Epoch: 2026-06-15T06:16Z
TLE epoch observation values (Epoch: 2026-06-15T06:16:43.645Z)
Latitude
-0.00002°
Longitude
76.15851°
Altitude
1,360.35 km
Speed
7.192 km/s
True Right ascension
04h 55m 33s
True Declination
0° 00' 00"
Sunlit
Object was in daylight at epoch
Visualization orbit readout
Latitude
Unknown
Longitude
Unknown
Altitude
Unknown
Speed
Unknown
Apparent Right ascension
Unknown
Apparent Declination
Unknown
Sunlit
N/A
Visualization observer readout
Local Sidereal Time
01:00:57
Azimuth
Unknown
Elevation
Unknown
Doppler factor
Unknown
Orbital elements
Apogee altitude
1,415.6 km
Perigee altitude
1,352.01 km
Semi-major axis
7,761.942 km
Eccentricity
0.0041
Inclination
101.8472°
RAAN
73.8909°
Arg. of periapsis
333.7241°
True anomaly
26.38422°
Mean anomaly
26.1762°
Eccentric anomaly
26.28012°
Mean motion
3.17386 °/min
Orbital period
113.43 mins
BSTAR
0.000096016
Loading maneuver chart data...
Computing Atmospheric mass density...
Loading historical data...
Loading historical data...
Loading historical data...
Loading historical data...
Loading historical data...
Loading historical data...
Loading historical data...
Other satellites on launch #36 in the year 1967 (1967-04-20 UTC)

Documentation

Showing up to 5 results
|